Hourly Data Report for November 02, 2020

OTTAWA INTL A
ONTARIO
Current Station Operator: NAVCAN

45°19'00.000" N
75°40'00.000" W
114.90 m
6106001
71628
YOW

Download Data

Hourly Data (November 2020)
Hourly Data Report for November 2, 2020
TIME Temp Definition
°C
Dew Point Definition
°C
Rel Hum Definition
%
Wind Dir Definition
10's deg

Wind Spd Definition
km/h
Visibility Definition
km
Stn Press Definition
kPa
Hmdx Definition


Wind Chill Definition


Weather Definition


00:00 1.7 -0.2 87 25 16 24.1 98.77     LegendNANA
01:00 2.0 -0.9 81 28 23 24.1 98.75     Cloudy
02:00 1.0 -1.7 82 30 35 11.3 98.81     Snow Showers
03:00 0.1 -4.1 73 31 37 11.3 98.91     Snow Showers
04:00 -0.9 -4.5 77 31 43 12.9 99.02   -9 Snow
05:00 -1.1 -7.8 60 32 50 24.1 99.12   -10 LegendNANA
06:00 -1.1 -7.3 63 31 33 24.1 99.22   -8 LegendNANA
07:00 -1.6 -7.1 66 31 38 24.1 99.33   -9 Snow Showers
08:00 -1.9 -7.9 64 32 45 24.1 99.44   -10 Snow Showers
09:00 -1.5 -8.6 59 31 39 24.1 99.51   -9 Snow Showers
10:00 -1.3 -9.0 56 31 36 24.1 99.55   -9 Snow Showers
11:00 -1.8 -8.2 62 29 40 24.1 99.57   -10 Snow Showers
12:00 -1.3 -8.6 58 28 34 24.1 99.55   -9 Snow Showers
13:00 -0.3 -9.4 50 29 34 24.1 99.51   -7 Mainly Clear
14:00 0.0 -9.7 48 29 30 24.1 99.45   -6 LegendNANA
15:00 -0.4 -10.7 46 26 28 24.1 99.44   -7 LegendNANA
16:00 -0.2 -10.6 46 27 23 24.1 99.36   -6 Mostly Cloudy
17:00 -1.5 -6.1 71 25 25 12.9 99.27   -8 Snow Showers
18:00 -2.4 -3.8 91 22 14 12.9 99.18   -7 Snow Showers
19:00 -2.5 -3.4 93 20 13 3.2 98.99   -7 Snow
20:00 -2.4 -3.7 91 17 18 12.9 98.74   -8 Snow
21:00 -2.0 -3.0 93 20 14 3.2 98.59   -7 Snow
22:00 -0.2 -0.8 96 26 21 2.4 98.53   -6 Snow
23:00 0.5 -0.1 95 29 30 12.9 98.63     Snow

Notes on Data Quality.

Legend

  • E = Estimated
  • M = Missing
  • NA = Not Available*
  • [empty] = Indicates an unobserved value
Date modified: